Location: Newark
(22.2167°N, 96.1167°E)
Time: 17:01:15
(UTC+00:00)

ISS - Visible Passes

Search period start: 05 December 2019 00:00
Search period end: 15 December 2019 00:00
Orbit: 412 x 421 km, 51.6° (Epoch: 05 December)

Date Brightness Start Highest point End Pass type
(mag) Time Alt. Az. Time Alt. Az. Time Alt. Az.
11 Dec -3.5 12:06:04 10° NNW 12:09:07 44° NE 12:09:07 44° NE visible
12 Dec -2.5 11:18:03 10° N 11:20:44 22° NE 11:23:25 10° E visible
12 Dec -0.9 12:55:03 10° W 12:57:17 17° SW 12:58:07 15° SW visible
13 Dec -2.1 12:05:46 10° WNW 12:08:52 35° SW 12:11:58 10° SSE visible
14 Dec -3.7 11:17:02 10° NW 11:20:23 86° SW 11:23:43 10° SE visible
